Location: Cluny
(50.9333°N, 112.8167°W)
Time: 00:47:48
(UTC-06:00)

Amateur Radio Satellites - All Passes

Search period start: 28 July 2017 00:17
Search period end: 29 July 2017 00:17
Location: Cluny, 50.9333°N, 112.8167°W

Satellite Date Start Highest point End Downlink Frequencies (MHz)
Time Altitude Azimuth
ESTCUBE 1 28 Jul 00:21:58 00:26:23 59° 259° (W) 00:30:51 437.505/2401.250
TIGRISAT 28 Jul 00:24:14 00:28:23 45° 291° (WNW) 00:32:26 435.000
ISS 28 Jul 00:25:42 00:28:57 79° 4° (N) 00:32:13 437.550
DX 1 28 Jul 00:49:09 00:52:48 27° 62° (ENE) 00:56:30 434.975-435.025
M-CUBED/EXP-1 PRIME 28 Jul 00:51:50 00:56:28 83° 293° (WNW) 01:01:09 437.505
VELOX 1 28 Jul 00:53:18 00:57:43 76° 74° (ENE) 01:02:12 145.980
DUCHIFAT 1 28 Jul 00:54:17 00:57:46 25° 94° (E) 01:01:13 145.980
POLYITAN 1 28 Jul 01:01:29 01:05:22 35° 97° (E) 01:09:13 437.675
nSIGHT-1 28 Jul 01:04:55 01:08:10 83° 194° (SSW) 01:11:24 .
FO-29 28 Jul 01:10:42 01:16:28 26° 308° (NW) 01:21:44 435.910
BUGSAT 1 28 Jul 01:11:31 01:13:03 12° 87° (E) 01:14:34 437.445
QB50P2 28 Jul 01:14:36 01:18:45 52° 100° (E) 01:22:51 145.880/145.840
UNISAT 6 28 Jul 01:18:38 01:21:14 16° 303° (WNW) 01:23:49 437.425
SPROUT 28 Jul 01:19:44 01:23:57 54° 260° (W) 01:28:11 437.525
NANOSAT C BR1 28 Jul 01:23:19 01:27:27 52° 100° (E) 01:31:32 145.865
UKube-1 28 Jul 01:24:34 01:28:33 38° 67° (ENE) 01:32:36 .
EO-79 28 Jul 01:25:26 01:29:38 61° 102° (ESE) 01:33:46 145.935-145.965
AIST 2D 28 Jul 01:34:01 01:37:19 40° 289° (WNW) 01:40:36 435.315
O/OREOS (USA 219) 28 Jul 01:35:15 01:39:34 46° 249° (WSW) 01:43:52 437.305
Tancredo 1 28 Jul 01:38:41 01:41:18 29° 210° (SSW) 01:43:55 437.200
50 SAT 28 Jul 01:46:18 01:49:41 64° 259° (W) 01:53:06 437.505
Gurwin Techsat 1B 28 Jul 02:01:04 02:03:37 13° 85° (E) 02:06:10 435.225
ISS 28 Jul 02:02:13 02:05:22 45° 205° (SSW) 02:08:30 437.550
DX 1 28 Jul 02:24:40 02:28:49 42° 261° (W) 02:33:01 434.975-435.025
RS-15 28 Jul 02:25:25 02:36:24 44° 250° (WSW) 02:46:55 29.354- 29.394
M-CUBED/EXP-1 PRIME 28 Jul 02:27:24 02:30:15 16° 310° (NW) 02:33:06 437.505
DUCHIFAT 1 28 Jul 02:29:38 02:33:34 39° 292° (WNW) 02:37:27 145.980
VELOX 1 28 Jul 02:32:11 02:34:43 15° 272° (W) 02:37:16 145.980
BEESAT 28 Jul 02:37:01 02:41:05 28° 62° (ENE) 02:45:09 436.000
POLYITAN 1 28 Jul 02:37:26 02:41:04 29° 296° (WNW) 02:44:40 437.675
nSIGHT-1 28 Jul 02:41:33 02:44:17 25° 213° (SSW) 02:47:01 .
BUGSAT 1 28 Jul 02:44:53 02:49:00 82° 287° (WNW) 02:53:03 437.445
Oscar 19 28 Jul 02:46:30 02:51:27 44° 98° (E) 02:56:24 437.125/150
QB50P2 28 Jul 02:51:03 02:54:14 21° 299° (WNW) 02:57:24 145.880/145.840
ITUPSAT 1 28 Jul 02:52:08 02:56:30 36° 65° (ENE) 03:00:52 437.325
NANOSAT C BR1 28 Jul 02:59:43 03:02:50 21° 299° (WNW) 03:05:57 145.865
UKube-1 28 Jul 03:00:58 03:04:41 28° 265° (W) 03:08:25 .
EO-79 28 Jul 03:02:04 03:04:59 18° 301° (WNW) 03:07:54 145.935-145.965
MOZHAYETS 4 28 Jul 03:08:17 03:12:27 36° 66° (ENE) 03:16:39
Gurwin Techsat 1B 28 Jul 03:39:05 03:44:28 79° 105° (ESE) 03:49:47 435.225
ISS 28 Jul 03:40:17 03:41:12 11° 223° (SW) 03:42:08 437.550
CUBESAT XI-V 28 Jul 03:52:26 03:56:04 24° 61° (ENE) 03:59:45 437.345
AO-7 28 Jul 04:12:58 04:20:15 32° 93° (E) 04:27:26 .
BEESAT 28 Jul 04:14:06 04:18:40 46° 260° (W) 04:23:17 436.000
BUGSAT 1 28 Jul 04:22:06 04:23:41 12° 305° (NW) 04:25:16 437.445
YUBILEINY 28 Jul 04:23:55 04:30:31 23° 52° (NE) 04:37:04 435.215
Oscar 19 28 Jul 04:26:05 04:30:39 33° 298° (WNW) 04:35:13 437.125/150
PCSat 28 Jul 04:28:30 04:32:19 20° 107° (ESE) 04:36:09 145.827
ITUPSAT 1 28 Jul 04:30:00 04:34:21 34° 263° (W) 04:38:44 437.325
ITAMSAT 1 28 Jul 04:45:23 04:50:20 43° 98° (E) 04:55:15 435.822/435.867
MOZHAYETS 4 28 Jul 04:45:35 04:49:40 31° 265° (W) 04:53:45
KKS-1 28 Jul 05:01:06 05:05:29 56° 70° (ENE) 05:09:55 437.445
Gurwin Techsat 1B 28 Jul 05:19:58 05:23:51 21° 304° (NW) 05:27:43 435.225
STARS 28 Jul 05:21:22 05:25:32 41° 67° (ENE) 05:29:43 437.465
CUBESAT XI-V 28 Jul 05:28:40 05:33:09 52° 260° (W) 05:37:42 437.345
DOVE 4 28 Jul 05:37:36 05:40:12 14° 83° (E) 05:42:44 437.250
SO-50 28 Jul 05:52:32 05:55:40 19° 114° (ESE) 05:58:50 436.795
AO-7 28 Jul 06:05:23 06:13:45 75° 295° (WNW) 06:22:03 .
PCSat 28 Jul 06:09:38 06:15:04 83° 306° (NW) 06:20:34 145.827
YUBILEINY 28 Jul 06:20:11 06:29:01 78° 78° (ENE) 06:37:44 435.215
ITAMSAT 1 28 Jul 06:25:04 06:29:44 34° 298° (WNW) 06:34:21 435.822/435.867
STRAND 1 28 Jul 06:27:01 06:30:41 20° 56° (NE) 06:34:21 437.568
KKS-1 28 Jul 06:39:03 06:42:23 20° 269° (W) 06:45:44 437.445
XW-2D 28 Jul 06:51:17 06:54:02 19° 92° (E) 06:56:47 145.860 - 145.880
CUTE-I 28 Jul 06:58:02 07:02:18 23° 91° (E) 07:06:31 437.470
STARS 28 Jul 06:58:14 07:02:00 27° 266° (W) 07:05:48 437.465
XW-2B 28 Jul 07:01:14 07:04:18 23° 93° (E) 07:07:21 145.730 - 145.750
NUDT-PHONESAT 28 Jul 07:12:19 07:15:18 23° 93° (E) 07:18:17 437.300
DOVE 4 28 Jul 07:13:26 07:18:45 81° 103° (ESE) 07:23:51 437.250
XW-2C 28 Jul 07:18:29 07:21:59 35° 97° (E) 07:25:27 145.795 - 145.815
HO-68 28 Jul 07:25:19 07:29:51 17° 85° (E) 07:34:21 435.675
SO-50 28 Jul 07:31:07 07:35:39 76° 315° (NW) 07:40:11 436.795
KAITUO 1B 28 Jul 07:31:39 07:35:09 37° 98° (E) 07:38:39 145.475/437.950
LilacSat-2 28 Jul 07:45:50 07:49:40 75° 104° (ESE) 07:53:27 437.200
XW-2F 28 Jul 07:53:17 07:57:03 81° 104° (ESE) 08:00:49 145.980 - 146.000
PCSat 28 Jul 07:54:47 07:59:15 25° 330° (NNW) 08:03:45 145.827
FO-29 28 Jul 07:58:20 08:03:53 22° 48° (NE) 08:09:22 435.910
AO-7 28 Jul 07:58:56 08:05:19 25° 318° (NW) 08:11:40 .
STRAND 1 28 Jul 08:04:09 08:09:18 79° 255° (WSW) 08:14:29 437.568
YUBILEINY 28 Jul 08:17:52 08:24:58 29° 281° (W) 08:32:03 435.215
XW-2D 28 Jul 08:24:50 08:28:25 42° 290° (WNW) 08:32:01 145.860 - 145.880
UWE-3 28 Jul 08:29:19 08:31:24 13° 87° (E) 08:33:29 435.000/436.395/437.385
XW-2B 28 Jul 08:35:07 08:38:35 35° 292° (WNW) 08:42:02 145.730 - 145.750
CUTE-I 28 Jul 08:37:28 08:42:47 63° 290° (WNW) 08:48:02 437.470
NUDT-PHONESAT 28 Jul 08:45:56 08:49:16 33° 292° (WNW) 08:52:37 437.300
DOVE 4 28 Jul 08:52:02 08:55:48 20° 303° (WNW) 08:59:29 437.250
XW-2C 28 Jul 08:52:59 08:56:02 24° 295° (WNW) 08:59:05 145.795 - 145.815
Oscar 11 28 Jul 08:55:45 08:56:25 10° 85° (E) 08:57:05 .
CUTE 1.7 + AOD 2 28 Jul 08:56:45 09:01:01 73° 103° (ESE) 09:05:15 437.475
SEEDS 28 Jul 09:01:59 09:06:09 54° 100° (E) 09:10:18 437.485
KAITUO 1B 28 Jul 09:06:03 09:08:58 22° 296° (WNW) 09:11:53 145.475/437.950
XW-2A 28 Jul 09:06:58 09:10:16 57° 101° (E) 09:13:34 145.665 - 145.685
UNISAT 6 28 Jul 09:09:00 09:12:11 19° 59° (ENE) 09:15:20 437.425
HO-68 28 Jul 09:11:34 09:18:47 77° 106° (ESE) 09:25:56 435.675
AO-73 28 Jul 09:12:11 09:15:07 19° 90° (E) 09:18:02 145.935
SO-50 28 Jul 09:13:14 09:16:48 22° 335° (NNW) 09:20:23 436.795
CUBEBUG 2 28 Jul 09:13:51 09:18:05 58° 100° (E) 09:22:11 437.445
LilacSat-2 28 Jul 09:21:33 09:23:25 13° 301° (WNW) 09:25:18 437.200
XW-2F 28 Jul 09:29:03 09:30:38 12° 302° (WNW) 09:32:12 145.980 - 146.000
AAUSAT CUBESAT 2 28 Jul 09:34:35 09:38:43 57° 100° (E) 09:42:50 437.432
PRISM 28 Jul 09:34:43 09:38:03 24° 62° (ENE) 09:41:25 437.425
FO-29 28 Jul 09:39:55 09:47:40 69° 69° (ENE) 09:55:25 435.910
PCSat 28 Jul 09:41:36 09:44:37 15° 356° (N) 09:47:37 145.827
STRAND 1 28 Jul 09:47:02 09:49:21 13° 275° (W) 09:51:39 437.568
TIGRISAT 28 Jul 09:50:51 09:55:06 38° 67° (ENE) 09:59:16 435.000
AO-7 28 Jul 09:53:17 09:55:10 11° 345° (NNW) 09:57:03 .
UWE-3 28 Jul 10:04:13 10:08:26 74° 286° (WNW) 10:12:32 435.000/436.395/437.385
DELFI C3 28 Jul 10:04:55 10:07:01 14° 88° (E) 10:09:06 145.870
M-CUBED/EXP-1 PRIME 28 Jul 10:08:24 10:11:58 35° 59° (ENE) 10:15:49 437.505
ZACube-1 28 Jul 10:09:34 10:13:44 74° 104° (ESE) 10:17:52 437.345
CUTE-I 28 Jul 10:19:17 10:21:50 14° 311° (NW) 10:24:24 437.470
Oscar 11 28 Jul 10:28:56 10:33:17 81° 104° (ESE) 10:37:37 .
CUTE 1.7 + AOD 2 28 Jul 10:33:43 10:36:21 16° 301° (WNW) 10:38:59 437.475
SEEDS 28 Jul 10:38:23 10:41:29 20° 299° (WNW) 10:44:37 437.485
QB50P2 28 Jul 10:39:15 10:40:44 12° 54° (NE) 10:42:13 145.880/145.840
XW-2A 28 Jul 10:41:00 10:42:36 13° 300° (WNW) 10:44:12 145.665 - 145.685
AIST 2D 28 Jul 10:41:07 10:43:10 15° 62° (ENE) 10:45:14 435.315
UNISAT 6 28 Jul 10:43:52 10:48:28 68° 258° (WSW) 10:52:59 437.425
NANOSAT C BR1 28 Jul 10:47:28 10:48:57 12° 54° (NE) 10:50:26 145.865
AO-73 28 Jul 10:47:39 10:51:41 51° 289° (WNW) 10:55:42 145.935
EO-79 28 Jul 10:49:19 10:51:19 13° 56° (NE) 10:53:20 145.935-145.965
NO-84 28 Jul 10:50:50 10:53:02 19° 134° (SE) 10:55:21 435.350 FM
CUBEBUG 2 28 Jul 10:51:18 10:54:19 19° 300° (WNW) 10:57:17 437.445
SO-50 28 Jul 10:56:18 10:58:50 15° 360° (N) 11:01:23 436.795
HO-68 28 Jul 10:59:57 11:05:56 30° 307° (NW) 11:11:53 435.675
PRISM 28 Jul 11:09:13 11:13:08 42° 261° (W) 11:17:06 437.425
EO-88 28 Jul 11:10:21 11:13:48 38° 98° (E) 11:17:13 145.990 - 145.960
AAUSAT CUBESAT 2 28 Jul 11:10:50 11:13:49 19° 299° (WNW) 11:16:47 437.432
FO-29 28 Jul 11:26:14 11:33:10 34° 269° (W) 11:40:08 435.910
PCSat 28 Jul 11:26:15 11:30:10 20° 22° (NNE) 11:34:04 145.827
TIGRISAT 28 Jul 11:27:48 11:31:51 30° 265° (W) 11:35:50 435.000
DELFI C3 28 Jul 11:38:15 11:42:15 69° 287° (WNW) 11:46:14 145.870
UWE-3 28 Jul 11:42:58 11:44:07 11° 306° (NW) 11:45:16 435.000/436.395/437.385
AO-7 28 Jul 11:43:07 11:44:12 10° 13° (NNE) 11:45:18 .
M-CUBED/EXP-1 PRIME 28 Jul 11:43:07 11:46:28 28° 260° (W) 11:50:03 437.505
ZACube-1 28 Jul 11:47:05 11:49:30 15° 302° (WNW) 11:51:55 437.345
DUCHIFAT 1 28 Jul 11:50:24 11:54:16 35° 66° (ENE) 11:58:08 145.980
POLYITAN 1 28 Jul 11:58:22 12:02:29 51° 70° (ENE) 12:06:38 437.675
BUGSAT 1 28 Jul 12:05:09 12:08:04 18° 60° (ENE) 12:11:00 437.445
Oscar 11 28 Jul 12:06:21 12:08:52 15° 303° (WNW) 12:11:22 .
ESTCUBE 1 28 Jul 12:09:44 12:13:10 21° 91° (E) 12:16:36 437.505/2401.250
QB50P2 28 Jul 12:11:31 12:15:46 74° 74° (ENE) 12:20:03 145.880/145.840
AIST 2D 28 Jul 12:12:37 12:16:01 51° 260° (W) 12:19:26 435.315
NANOSAT C BR1 28 Jul 12:19:41 12:23:56 75° 73° (ENE) 12:28:11 145.865
EO-79 28 Jul 12:22:10 12:26:26 86° 74° (ENE) 12:30:43 145.935-145.965
NO-84 28 Jul 12:26:57 12:30:04 83° 339° (NNW) 12:33:28 435.350 FM
Oscar 19 28 Jul 12:31:05 12:34:42 20° 56° (NE) 12:38:22 437.125/150
LO-87 28 Jul 12:35:34 12:39:08 53° 100° (E) 12:42:39 145.935 - 145.965
SO-50 28 Jul 12:37:18 12:40:53 22° 25° (NNE) 12:44:27 436.795
VELOX 1 28 Jul 12:41:24 12:41:41 10° 85° (E) 12:41:58 145.980
EO-88 28 Jul 12:44:29 12:47:16 21° 296° (WNW) 12:50:03 145.990 - 145.960
SPROUT 28 Jul 13:00:57 13:03:56 18° 90° (E) 13:06:54 437.525
AO-85 28 Jul 13:03:42 13:07:32 51° 124° (SE) 13:11:21 145.980
PCSat 28 Jul 13:09:27 13:14:47 53° 45° (NE) 13:20:05 145.827
BEESAT 3 28 Jul 13:11:27 13:15:25 64° 126° (SE) 13:19:27 437.485
Gurwin Techsat 1B 28 Jul 13:26:10 13:30:58 36° 63° (ENE) 13:35:47 435.225
DUCHIFAT 1 28 Jul 13:26:19 13:29:59 28° 265° (W) 13:33:42 145.980
AO-7 28 Jul 13:27:54 13:33:56 23° 39° (NE) 13:39:58 .
POLYITAN 1 28 Jul 13:35:23 13:38:34 20° 269° (W) 13:41:45 437.675
BUGSAT 1 28 Jul 13:38:51 13:43:02 62° 259° (WSW) 13:47:14 437.445
ESTCUBE 1 28 Jul 13:45:52 13:50:18 55° 290° (WNW) 13:54:43 437.505/2401.250
QB50P2 28 Jul 13:49:46 13:52:05 14° 272° (W) 13:54:24 145.880/145.840
NANOSAT C BR1 28 Jul 13:57:54 14:00:10 14° 272° (W) 14:02:25 145.865
BEESAT 2 28 Jul 14:00:06 14:04:06 70° 127° (SE) 14:08:10 435.950
EO-79 28 Jul 14:01:05 14:02:49 12° 273° (W) 14:04:32 145.935-145.965
NO-84 28 Jul 14:04:39 14:07:48 41° 357° (N) 14:11:14 435.350 FM
DX 1 28 Jul 14:07:51 14:11:24 23° 93° (E) 14:14:54 434.975-435.025
Oscar 19 28 Jul 14:08:21 14:13:28 79° 255° (WSW) 14:18:39 437.125/150
LO-87 28 Jul 14:09:57 14:12:12 16° 299° (WNW) 14:14:26 145.935 - 145.965
VELOX 1 28 Jul 14:14:26 14:18:56 75° 104° (ESE) 14:23:23 145.980
SO-50 28 Jul 14:17:30 14:22:03 74° 46° (NE) 14:26:37 436.795
O/OREOS (USA 219) 28 Jul 14:17:37 14:17:59 10° 96° (E) 14:18:21 437.305
ITAMSAT 1 28 Jul 14:30:48 14:34:37 21° 55° (NE) 14:38:25 435.822/435.867
50 SAT 28 Jul 14:35:48 14:39:14 59° 102° (ESE) 14:42:37 437.505
SPROUT 28 Jul 14:36:00 14:40:12 57° 289° (WNW) 14:44:21 437.525
UKube-1 28 Jul 14:42:08 14:46:06 33° 97° (E) 14:50:01 .
RS-15 28 Jul 14:44:23 14:53:30 26° 99° (E) 15:02:40 29.354- 29.394
AO-85 28 Jul 14:44:41 14:48:08 28° 326° (NW) 14:51:35 145.980
BEESAT 3 28 Jul 14:49:54 14:53:20 26° 327° (NNW) 14:56:47 437.485
PCSat 28 Jul 14:53:10 14:58:02 34° 247° (WSW) 15:02:51 145.827
Gurwin Techsat 1B 28 Jul 15:05:49 15:10:51 42° 262° (W) 15:15:55 435.225
AO-7 28 Jul 15:17:03 15:25:18 66° 63° (ENE) 15:33:36 .
BEESAT 2 28 Jul 15:38:52 15:42:15 25° 329° (NNW) 15:45:39 435.950
NO-84 28 Jul 15:42:12 15:45:40 59° 18° (NNE) 15:49:26 435.350 FM
DX 1 28 Jul 15:43:35 15:47:48 46° 292° (WNW) 15:52:00 434.975-435.025
Oscar 19 28 Jul 15:51:25 15:53:40 13° 275° (W) 15:55:55 437.125/150
VELOX 1 28 Jul 15:51:56 15:54:51 17° 303° (WNW) 15:57:46 145.980
O/OREOS (USA 219) 28 Jul 15:52:04 15:56:32 75° 116° (ESE) 16:01:02 437.305
SO-50 28 Jul 15:58:47 16:02:03 20° 246° (WSW) 16:05:19 436.795
ITAMSAT 1 28 Jul 16:08:17 16:13:31 78° 255° (WSW) 16:18:48 435.822/435.867
BEESAT 28 Jul 16:08:57 16:13:10 31° 95° (E) 16:17:21 436.000
50 SAT 28 Jul 16:09:45 16:11:32 14° 300° (WNW) 16:13:19 437.505
UKube-1 28 Jul 16:18:13 16:22:05 32° 296° (WNW) 16:25:57 .
ITUPSAT 1 28 Jul 16:24:43 16:29:14 41° 98° (E) 16:33:43 437.325
AO-85 28 Jul 16:28:04 16:29:48 12° 350° (N) 16:31:32 145.980
BEESAT 3 28 Jul 16:30:29 16:32:12 12° 350° (N) 16:33:56 437.485
MOZHAYETS 4 28 Jul 16:34:42 16:39:03 41° 98° (E) 16:43:22
DOVE 4 28 Jul 16:46:52 16:50:55 24° 59° (ENE) 16:55:04 437.250
CUTE-I 28 Jul 16:48:17 16:50:43 13° 49° (NE) 16:53:10 437.470
RS-15 28 Jul 16:51:48 17:04:02 77° 124° (SE) 17:16:20 29.354- 29.394
AO-7 28 Jul 17:11:02 17:18:35 37° 264° (W) 17:26:12 .
BEESAT 2 28 Jul 17:19:37 17:21:20 12° 352° (N) 17:23:04 435.950
NO-84 28 Jul 17:19:39 17:23:07 42° 216° (SW) 17:26:52 435.350 FM
CUBESAT XI-V 28 Jul 17:20:03 17:24:04 27° 93° (E) 17:28:04 437.345
O/OREOS (USA 219) 28 Jul 17:33:08 17:36:28 20° 316° (NW) 17:39:49 437.305
YUBILEINY 28 Jul 17:34:40 17:40:15 19° 72° (ENE) 17:45:48 435.215
XW-2D 28 Jul 17:37:24 17:40:11 20° 63° (ENE) 17:42:58 145.860 - 145.880
BEESAT 28 Jul 17:46:35 17:51:02 40° 295° (WNW) 17:55:28 436.000
XW-2B 28 Jul 17:47:16 17:50:18 24° 65° (ENE) 17:53:22 145.730 - 145.750
ITAMSAT 1 28 Jul 17:51:30 17:53:52 13° 275° (W) 17:56:14 435.822/435.867
NUDT-PHONESAT 28 Jul 17:56:21 17:59:16 23° 65° (ENE) 18:02:12 437.300
HO-68 28 Jul 17:59:32 18:05:12 26° 50° (NE) 18:10:51 435.675
ITUPSAT 1 28 Jul 18:02:47 18:06:58 31° 297° (WNW) 18:11:07 437.325
XW-2C 28 Jul 18:04:23 18:07:48 35° 68° (ENE) 18:11:15 145.795 - 145.815
BEESAT 3 28 Jul 18:09:20 18:11:26 14° 15° (NNE) 18:13:32 437.485
AO-85 28 Jul 18:09:40 18:11:50 14° 16° (NNE) 18:14:04 145.980
MOZHAYETS 4 28 Jul 18:12:09 18:16:04 28° 297° (WNW) 18:19:58
KAITUO 1B 28 Jul 18:16:14 18:19:38 36° 69° (ENE) 18:23:03 145.475/437.950
CUTE 1.7 + AOD 2 28 Jul 18:20:40 18:22:50 14° 57° (ENE) 18:25:00 437.475
DOVE 4 28 Jul 18:23:07 18:28:08 65° 259° (W) 18:33:24 437.250
KKS-1 28 Jul 18:23:15 18:27:40 54° 101° (E) 18:32:02 437.445
CUTE-I 28 Jul 18:24:28 18:29:45 60° 69° (ENE) 18:35:04 437.470
SEEDS 28 Jul 18:26:24 18:27:18 11° 54° (NE) 18:28:12 437.485
LilacSat-2 28 Jul 18:32:09 18:35:54 75° 74° (ENE) 18:39:41 437.200
XW-2F 28 Jul 18:38:32 18:42:15 79° 75° (ENE) 18:46:00 145.980 - 146.000
STARS 28 Jul 18:41:36 18:45:45 37° 98° (E) 18:49:49 437.465
CUBEBUG 2 28 Jul 18:42:12 18:44:42 15° 57° (ENE) 18:47:09 437.445
CUBESAT XI-V 28 Jul 18:57:10 19:01:36 44° 292° (WNW) 19:06:02 437.345
AAUSAT CUBESAT 2 28 Jul 18:57:36 18:58:29 11° 54° (NE) 18:59:22 437.432
BEESAT 2 28 Jul 18:58:29 19:00:44 14° 16° (NNE) 19:03:00 435.950
RS-15 28 Jul 19:05:31 19:17:33 54° 333° (NNW) 19:29:32 29.354- 29.394
XW-2D 28 Jul 19:10:33 19:14:08 42° 261° (W) 19:17:43 145.860 - 145.880
XW-2B 28 Jul 19:20:56 19:24:22 34° 263° (W) 19:27:50 145.730 - 145.750
YUBILEINY 28 Jul 19:26:42 19:35:29 74° 96° (E) 19:44:18 435.215
NUDT-PHONESAT 28 Jul 19:29:38 19:33:01 34° 263° (W) 19:36:25 437.300
UWE-3 28 Jul 19:30:17 19:33:48 23° 62° (ENE) 19:37:13 435.000/436.395/437.385
ZACube-1 28 Jul 19:35:42 19:38:18 16° 58° (ENE) 19:40:52 437.345
XW-2C 28 Jul 19:39:06 19:42:06 22° 267° (W) 19:45:07 145.795 - 145.815
XW-2A 28 Jul 19:42:40 19:45:53 42° 71° (ENE) 19:49:05 145.665 - 145.685
HO-68 28 Jul 19:44:57 19:52:09 89° 249° (WSW) 19:59:23 435.675
Tancredo 1 28 Jul 19:45:28 19:47:31 17° 144° (SE) 19:49:34 437.200
BEESAT 3 28 Jul 19:46:24 19:50:08 34° 37° (NE) 19:53:49 437.485
AO-85 28 Jul 19:49:30 19:53:19 37° 39° (NE) 19:57:21 145.980
KAITUO 1B 28 Jul 19:50:54 19:53:46 21° 267° (W) 19:56:38 145.475/437.950
CUTE 1.7 + AOD 2 28 Jul 19:53:51 19:58:04 86° 259° (W) 20:02:19 437.475
Oscar 11 28 Jul 19:54:11 19:56:54 17° 58° (ENE) 19:59:37 .
SEEDS 28 Jul 19:58:04 20:02:12 70° 73° (ENE) 20:06:23 437.485
KKS-1 28 Jul 20:00:25 20:03:54 22° 300° (WNW) 20:07:21 437.445
CUTE-I 28 Jul 20:05:51 20:10:12 25° 268° (W) 20:14:34 437.470
DOVE 4 28 Jul 20:05:55 20:06:54 10° 279° (W) 20:07:53 437.250
LilacSat-2 28 Jul 20:09:26 20:10:41 11° 273° (W) 20:11:56 437.200
STRAND 1 28 Jul 20:09:59 20:14:09 24° 92° (E) 20:18:16 437.568
AO-73 28 Jul 20:12:00 20:15:42 28° 65° (ENE) 20:19:21 145.935
CUBEBUG 2 28 Jul 20:16:02 20:20:41 87° 75° (ENE) 20:25:14 437.445
XW-2F 28 Jul 20:16:07 20:16:55 11° 273° (W) 20:17:43 145.980 - 146.000
STARS 28 Jul 20:18:09 20:21:59 29° 296° (WNW) 20:25:47 437.465
ISS 28 Jul 20:21:57 20:24:07 17° 141° (SE) 20:26:18 437.550
AAUSAT CUBESAT 2 28 Jul 20:29:04 20:33:10 71° 74° (ENE) 20:37:19 437.432
BEESAT 2 28 Jul 20:35:45 20:39:35 37° 39° (NE) 20:43:22 435.950
DELFI C3 28 Jul 20:55:00 20:57:33 17° 60° (ENE) 21:00:07 145.870
nSIGHT-1 28 Jul 20:59:15 21:02:06 30° 149° (SSE) 21:04:59 .
UWE-3 28 Jul 21:05:35 21:09:59 51° 261° (W) 21:14:17 435.000/436.395/437.385
ZACube-1 28 Jul 21:09:41 21:14:04 78° 257° (WSW) 21:18:23 437.345
XW-2A 28 Jul 21:16:46 21:18:50 15° 269° (W) 21:20:55 145.665 - 145.685
Tancredo 1 28 Jul 21:19:36 21:22:31 68° 162° (SSE) 21:25:26 437.200
RS-15 28 Jul 21:21:37 21:33:14 43° 6° (N) 21:44:33 29.354- 29.394
BEESAT 3 28 Jul 21:24:00 21:27:47 40° 238° (WSW) 21:31:30 437.485
YUBILEINY 28 Jul 21:25:26 21:33:11 33° 299° (WNW) 21:40:57 435.215
Oscar 11 28 Jul 21:28:14 21:32:32 73° 257° (WSW) 21:36:51 .
AO-85 28 Jul 21:29:51 21:33:46 39° 237° (WSW) 21:37:54 145.980
CUTE 1.7 + AOD 2 28 Jul 21:33:39 21:34:35 11° 275° (W) 21:35:31 437.475
HO-68 28 Jul 21:35:37 21:40:51 21° 272° (W) 21:46:07 435.675
SEEDS 28 Jul 21:36:05 21:38:23 14° 272° (W) 21:40:42 437.485
AO-73 28 Jul 21:47:47 21:51:50 37° 263° (W) 21:55:50 145.935
STRAND 1 28 Jul 21:48:39 21:53:40 56° 291° (WNW) 21:58:39 437.568
EO-88 28 Jul 21:52:39 21:56:00 35° 69° (ENE) 21:59:21 145.990 - 145.960
CUBEBUG 2 28 Jul 21:55:40 21:57:54 13° 273° (W) 22:00:07 437.445
ISS 28 Jul 21:56:55 22:00:08 63° 160° (SSE) 22:03:22 437.550
AAUSAT CUBESAT 2 28 Jul 22:06:56 22:09:07 14° 272° (W) 22:11:20 437.432
BEESAT 2 28 Jul 22:13:35 22:17:21 37° 239° (WSW) 22:21:04 435.950
DELFI C3 28 Jul 22:28:00 22:31:54 61° 259° (W) 22:35:52 145.870
FO-29 28 Jul 22:30:17 22:36:53 39° 93° (E) 22:42:45 435.910
UNISAT 6 28 Jul 22:31:23 22:34:16 17° 89° (E) 22:37:07 437.425
nSIGHT-1 28 Jul 22:35:03 22:38:17 89° 168° (SSE) 22:41:33 .
O/OREOS (USA 219) 28 Jul 22:40:01 22:41:44 12° 34° (NE) 22:43:27 437.305
PRISM 28 Jul 22:45:50 22:48:48 19° 91° (E) 22:51:46 437.425
Tancredo 1 28 Jul 22:54:58 22:57:55 75° 2° (N) 23:00:51 437.200
TIGRISAT 28 Jul 23:13:35 23:17:39 39° 97° (E) 23:21:38 435.000
ESTCUBE 1 28 Jul 23:13:44 23:17:46 34° 65° (ENE) 23:21:50 437.505/2401.250
LO-87 28 Jul 23:16:00 23:19:30 46° 71° (ENE) 23:23:01 145.935 - 145.965
M-CUBED/EXP-1 PRIME 28 Jul 23:16:48 23:19:20 14° 93° (E) 23:21:51 437.505
EO-88 28 Jul 23:26:57 23:29:47 21° 267° (W) 23:32:38 145.990 - 145.960
STRAND 1 28 Jul 23:30:06 23:31:49 12° 312° (NW) 23:33:32 437.568
ISS 28 Jul 23:33:22 23:36:38 76° 1° (N) 23:39:53 437.550
RS-15 28 Jul 23:36:05 23:48:21 66° 38° (NE) 00:00:01 29.354- 29.394
VELOX 1 28 Jul 23:41:34 23:44:38 19° 58° (ENE) 23:47:44 145.980
SPROUT 28 Jul 23:58:40 00:02:17 27° 64° (ENE) 00:05:54 437.525
UNISAT 6 29 Jul 00:07:08 00:11:25 60° 289° (WNW) 00:15:36 437.425
